WZZ94WT EPGD-ENTC

Flight info

Callsign WZZ94WT
Flight time 2h 31m
Altitude 34000
Route VAPOS2H VAPOS N133 PENOR DCT EVLAN DCT POBEL/N0465F350 DCT MANKI MANKI2M
Aircraft A21N/M-SDE2E3FGHIRWXY/LB1

Departure

Time 2026-04-27 08:08
Airport Gdańsk Lech Wałęsa Airport (EPGD)

Arrival

Time 2026-04-27 10:40
Airport Tromsø Airport (ENTC)
Time Latitude Longitude Altitude Speed Heading
2026-04-27 07:27 54.38127 18.46558 462 ft 0 kts 23°
2026-04-27 07:59 54.38113 18.46547 465 ft 4 kts 34°
2026-04-27 08:00 54.38098 18.46516 464 ft 4 kts 79°
2026-04-27 08:00 54.38100 18.46480 465 ft 1 kts 113°
2026-04-27 08:00 54.38100 18.46479 465 ft 5 kts 113°
2026-04-27 08:03 54.38097 18.46492 465 ft 8 kts 112°
2026-04-27 08:03 54.38067 18.46598 465 ft 10 kts 136°
2026-04-27 08:03 54.38015 18.46603 465 ft 7 kts 203°
2026-04-27 08:03 54.37965 18.46579 465 ft 8 kts 170°
2026-04-27 08:04 54.37926 18.46662 465 ft 11 kts 112°
2026-04-27 08:04 54.37893 18.46799 465 ft 14 kts 116°
2026-04-27 08:04 54.37851 18.46967 465 ft 17 kts 114°
2026-04-27 08:04 54.37795 18.47182 465 ft 22 kts 113°
2026-04-27 08:05 54.37730 18.47451 465 ft 26 kts 113°
2026-04-27 08:05 54.37655 18.47748 471 ft 28 kts 114°
2026-04-27 08:05 54.37579 18.48065 471 ft 30 kts 114°
2026-04-27 08:05 54.37495 18.48399 482 ft 31 kts 114°
2026-04-27 08:06 54.37409 18.48755 488 ft 33 kts 114°
2026-04-27 08:06 54.37338 18.49038 500 ft 16 kts 114°
2026-04-27 08:06 54.37290 18.49150 501 ft 10 kts 162°
2026-04-27 08:06 54.37214 18.49121 500 ft 12 kts 203°
2026-04-27 08:07 54.37158 18.49077 501 ft 6 kts 225°
2026-04-27 08:07 54.37158 18.49047 500 ft 0 kts 294°
2026-04-27 08:07 54.37255 18.48668 499 ft 73 kts 294°
2026-04-27 08:08 54.37554 18.47457 471 ft 146 kts 294°
2026-04-27 08:08 54.37985 18.45764 991 ft 154 kts 294°
2026-04-27 08:08 54.38369 18.44022 1708 ft 161 kts 294°
2026-04-27 08:08 54.38817 18.42156 2162 ft 177 kts 295°
2026-04-27 08:09 54.39327 18.40107 2675 ft 197 kts 295°
2026-04-27 08:09 54.39908 18.37788 3061 ft 225 kts 295°
2026-04-27 08:09 54.40546 18.35224 3671 ft 241 kts 295°
2026-04-27 08:09 54.41209 18.32551 4510 ft 246 kts 295°
2026-04-27 08:10 54.41882 18.29833 5407 ft 250 kts 295°
2026-04-27 08:10 54.42681 18.27182 6323 ft 251 kts 305°
2026-04-27 08:10 54.43954 18.25172 7150 ft 252 kts 327°
2026-04-27 08:10 54.45468 18.23613 7987 ft 255 kts 329°
2026-04-27 08:11 54.47008 18.22058 8806 ft 258 kts 329°
2026-04-27 08:11 54.48537 18.20485 9599 ft 261 kts 328°
2026-04-27 08:11 54.50097 18.18861 10389 ft 264 kts 328°
2026-04-27 08:11 54.51717 18.17150 10765 ft 283 kts 328°
2026-04-27 08:12 54.53450 18.15304 11031 ft 303 kts 328°
2026-04-27 08:12 54.55302 18.13326 11277 ft 323 kts 328°
2026-04-27 08:12 54.57266 18.11226 11509 ft 342 kts 328°
2026-04-27 08:12 54.59301 18.09019 11801 ft 355 kts 326°
2026-04-27 08:13 54.61311 18.06493 12305 ft 359 kts 323°
2026-04-27 08:13 54.63364 18.03839 12879 ft 362 kts 323°
2026-04-27 08:13 54.65376 18.01217 13432 ft 363 kts 323°
2026-04-27 08:13 54.67400 17.98585 13967 ft 365 kts 323°
2026-04-27 08:14 54.69438 17.95928 14447 ft 368 kts 323°
2026-04-27 08:14 54.71483 17.93247 14940 ft 371 kts 323°
2026-04-27 08:14 54.73544 17.90537 15475 ft 373 kts 323°
2026-04-27 08:14 54.75616 17.87808 16040 ft 376 kts 323°
2026-04-27 08:15 54.77704 17.85061 16622 ft 378 kts 323°
2026-04-27 08:15 54.79878 17.82485 17196 ft 380 kts 330°
2026-04-27 08:15 54.82231 17.80496 17746 ft 383 kts 334°
2026-04-27 08:15 54.84669 17.78598 18280 ft 386 kts 334°
2026-04-27 08:16 54.87121 17.76691 18795 ft 388 kts 334°
2026-04-27 08:16 54.89574 17.74758 19273 ft 391 kts 334°
2026-04-27 08:16 54.92059 17.72800 19737 ft 393 kts 334°
2026-04-27 08:16 54.94554 17.70831 20193 ft 396 kts 334°
2026-04-27 08:17 54.97067 17.68849 20627 ft 398 kts 334°
2026-04-27 08:17 54.99607 17.66868 21041 ft 401 kts 335°
2026-04-27 08:17 55.02172 17.64928 21445 ft 403 kts 335°
2026-04-27 08:17 55.04755 17.62972 21868 ft 406 kts 335°
2026-04-27 08:18 55.07349 17.60996 22263 ft 408 kts 335°
2026-04-27 08:18 55.09962 17.59000 22663 ft 411 kts 335°
2026-04-27 08:18 55.12592 17.56982 23045 ft 414 kts 335°
2026-04-27 08:18 55.15234 17.54950 23442 ft 416 kts 334°
2026-04-27 08:19 55.17889 17.52904 23824 ft 418 kts 334°
2026-04-27 08:19 55.20558 17.50847 24191 ft 421 kts 335°
2026-04-27 08:19 55.23234 17.48764 24639 ft 421 kts 334°
2026-04-27 08:19 55.25893 17.46647 25053 ft 421 kts 334°
2026-04-27 08:20 55.28556 17.44520 25236 ft 420 kts 334°
2026-04-27 08:20 55.31209 17.42404 25504 ft 420 kts 334°
2026-04-27 08:20 55.33869 17.40282 25983 ft 418 kts 334°
2026-04-27 08:20 55.36517 17.38169 26437 ft 417 kts 334°
2026-04-27 08:21 55.39152 17.36059 26890 ft 416 kts 334°
2026-04-27 08:21 55.41784 17.33953 27319 ft 415 kts 334°
2026-04-27 08:21 55.44407 17.31850 27719 ft 415 kts 334°
2026-04-27 08:21 55.47031 17.29739 28149 ft 414 kts 334°
2026-04-27 08:22 55.49616 17.27657 28567 ft 413 kts 334°
2026-04-27 08:22 55.52231 17.25549 28998 ft 412 kts 334°
2026-04-27 08:22 55.54836 17.23449 29401 ft 411 kts 334°
2026-04-27 08:22 55.57430 17.21352 29786 ft 410 kts 334°
2026-04-27 08:23 55.60032 17.19314 30146 ft 410 kts 337°
2026-04-27 08:23 55.62770 17.17881 30488 ft 412 kts 346°
2026-04-27 08:23 55.65627 17.17364 30819 ft 416 kts 356°
2026-04-27 08:23 55.68517 17.17820 31125 ft 421 kts
2026-04-27 08:24 55.71390 17.18860 31424 ft 422 kts
2026-04-27 08:24 55.74191 17.19938 31718 ft 421 kts
2026-04-27 08:24 55.77121 17.21063 32040 ft 420 kts
2026-04-27 08:24 55.79973 17.22142 32321 ft 420 kts
2026-04-27 08:25 55.82829 17.23215 32607 ft 419 kts
2026-04-27 08:25 55.85676 17.24281 32883 ft 418 kts
2026-04-27 08:25 55.88516 17.25347 33146 ft 418 kts
2026-04-27 08:25 55.91280 17.26387 33392 ft 417 kts
2026-04-27 08:26 55.94198 17.27487 33639 ft 417 kts
2026-04-27 08:26 55.97028 17.28555 33864 ft 416 kts
2026-04-27 08:26 55.99862 17.29624 34092 ft 416 kts
2026-04-27 08:26 56.02687 17.30694 34286 ft 416 kts
2026-04-27 08:27 56.08336 17.32845 34317 ft 415 kts
2026-04-27 08:27 56.13972 17.35026 34290 ft 414 kts
2026-04-27 08:28 56.19617 17.37157 34280 ft 414 kts
2026-04-27 08:28 56.25257 17.39291 34280 ft 414 kts
2026-04-27 08:29 56.30885 17.41450 34280 ft 414 kts
2026-04-27 08:29 56.36513 17.43612 34281 ft 414 kts
2026-04-27 08:30 56.42139 17.45783 34280 ft 414 kts
2026-04-27 08:30 56.47765 17.47966 34281 ft 414 kts
2026-04-27 08:31 56.53379 17.50174 34280 ft 412 kts
2026-04-27 08:31 56.58988 17.52336 34281 ft 412 kts
2026-04-27 08:32 56.64594 17.54528 34281 ft 412 kts
2026-04-27 08:32 56.70159 17.56702 34280 ft 411 kts
2026-04-27 08:33 56.75760 17.58907 34281 ft 412 kts
2026-04-27 08:33 56.81361 17.61121 34281 ft 412 kts
2026-04-27 08:34 56.86957 17.63328 34281 ft 411 kts
2026-04-27 08:34 56.92542 17.65540 34280 ft 411 kts
2026-04-27 08:35 56.98109 17.67756 34279 ft 410 kts
2026-04-27 08:35 57.03673 17.69983 34272 ft 409 kts
2026-04-27 08:36 57.09121 17.72170 34271 ft 408 kts
2026-04-27 08:36 57.14769 17.74431 34270 ft 407 kts
2026-04-27 08:37 57.20300 17.76662 34271 ft 407 kts
2026-04-27 08:37 57.25815 17.78889 34271 ft 406 kts
2026-04-27 08:38 57.30392 17.80744 34269 ft 405 kts
2026-04-27 08:38 57.35886 17.82978 34269 ft 403 kts
2026-04-27 08:39 57.41366 17.85213 34264 ft 403 kts
2026-04-27 08:39 57.46833 17.87445 34260 ft 402 kts
2026-04-27 08:40 57.52288 17.89683 34261 ft 401 kts
2026-04-27 08:40 57.57737 17.91920 34261 ft 401 kts
2026-04-27 08:41 57.63177 17.94176 34262 ft 400 kts
2026-04-27 08:41 57.68599 17.96429 34260 ft 399 kts
2026-04-27 08:42 57.74050 17.98710 34261 ft 398 kts
2026-04-27 08:42 57.79457 18.00943 34263 ft 398 kts
2026-04-27 08:43 57.84822 18.03168 34262 ft 398 kts
2026-04-27 08:43 57.90225 18.05434 34260 ft 398 kts
2026-04-27 08:44 57.95627 18.07706 34261 ft 398 kts
2026-04-27 08:44 58.01032 18.09982 34261 ft 398 kts
2026-04-27 08:45 58.06423 18.12268 34260 ft 398 kts
2026-04-27 08:45 58.11816 18.14555 34260 ft 398 kts
2026-04-27 08:46 58.17209 18.16858 34261 ft 398 kts
2026-04-27 08:46 58.22611 18.19147 34259 ft 398 kts
2026-04-27 08:47 58.28006 18.21448 34261 ft 397 kts
2026-04-27 08:47 58.33399 18.23773 34261 ft 397 kts
2026-04-27 08:48 58.38790 18.26105 34261 ft 398 kts
2026-04-27 08:48 58.44175 18.28453 34259 ft 397 kts
2026-04-27 08:49 58.49551 18.30780 34261 ft 397 kts
2026-04-27 08:49 58.54930 18.33106 34260 ft 396 kts
2026-04-27 08:50 58.60305 18.35445 34260 ft 396 kts
2026-04-27 08:50 58.65688 18.37802 34253 ft 396 kts
2026-04-27 08:51 58.71062 18.40160 34250 ft 396 kts
2026-04-27 08:51 58.76428 18.42525 34250 ft 396 kts
2026-04-27 08:52 58.81795 18.44894 34250 ft 395 kts
2026-04-27 08:52 58.87153 18.47269 34249 ft 396 kts
2026-04-27 08:53 58.92513 18.49651 34250 ft 396 kts
2026-04-27 08:53 58.97871 18.52037 34250 ft 396 kts
2026-04-27 08:54 59.03230 18.54438 34250 ft 396 kts
2026-04-27 08:54 59.08590 18.56845 34249 ft 396 kts
2026-04-27 08:55 59.13955 18.59267 34251 ft 395 kts
2026-04-27 08:55 59.19309 18.61680 34250 ft 396 kts
2026-04-27 08:56 59.24663 18.64109 34251 ft 395 kts
2026-04-27 08:56 59.30020 18.66551 34251 ft 396 kts
2026-04-27 08:57 59.38043 18.70218 34249 ft 395 kts
2026-04-27 08:58 59.43396 18.72667 34249 ft 395 kts
2026-04-27 08:58 59.48737 18.75129 34251 ft 395 kts
2026-04-27 08:59 59.54082 18.77594 34250 ft 395 kts
2026-04-27 08:59 59.59432 18.80063 34281 ft 395 kts
2026-04-27 08:59 59.62067 18.81284 34435 ft 396 kts
2026-04-27 09:00 59.64748 18.82530 34624 ft 396 kts
2026-04-27 09:00 59.67440 18.83790 34779 ft 397 kts
2026-04-27 09:00 59.70131 18.85047 34910 ft 398 kts
2026-04-27 09:00 59.72835 18.86308 35046 ft 400 kts
2026-04-27 09:01 59.75541 18.87575 35175 ft 401 kts
2026-04-27 09:01 59.80983 18.90127 35266 ft 402 kts
2026-04-27 09:02 59.86415 18.92679 35243 ft 401 kts
2026-04-27 09:02 59.91848 18.95249 35234 ft 402 kts
2026-04-27 09:03 59.97283 18.97826 35223 ft 402 kts
2026-04-27 09:03 60.02697 19.00403 35221 ft 404 kts
2026-04-27 09:04 60.08180 19.03012 35221 ft 405 kts
2026-04-27 09:04 60.13654 19.05630 35220 ft 405 kts
2026-04-27 09:05 60.19136 19.08267 35212 ft 405 kts
2026-04-27 09:05 60.24613 19.10790 35209 ft 402 kts
2026-04-27 09:06 60.30087 19.11250 35211 ft 396 kts 356°
2026-04-27 09:06 60.35548 19.11204 35211 ft 397 kts 355°
2026-04-27 09:07 60.41063 19.11183 35210 ft 397 kts 356°
2026-04-27 09:07 60.46557 19.11172 35208 ft 401 kts 356°
2026-04-27 09:08 60.52176 19.11167 35211 ft 405 kts 356°
2026-04-27 09:08 60.57817 19.11167 35209 ft 405 kts 356°
2026-04-27 09:09 60.63441 19.11162 35210 ft 405 kts 356°
2026-04-27 09:09 60.69075 19.11146 35210 ft 405 kts 356°
2026-04-27 09:10 60.74707 19.11144 35208 ft 406 kts 356°
2026-04-27 09:10 60.80305 19.11132 35201 ft 406 kts 356°
2026-04-27 09:11 60.85955 19.11130 35203 ft 406 kts 356°
2026-04-27 09:11 60.91608 19.11126 35199 ft 406 kts 356°
2026-04-27 09:12 60.97258 19.11116 35202 ft 407 kts 356°
2026-04-27 09:12 61.02875 19.11117 35202 ft 407 kts 356°
2026-04-27 09:13 61.08532 19.11099 35202 ft 407 kts 356°
2026-04-27 09:13 61.14181 19.11091 35200 ft 408 kts 356°
2026-04-27 09:14 61.19844 19.11084 35201 ft 408 kts 356°
2026-04-27 09:14 61.25512 19.11084 35202 ft 408 kts 356°
2026-04-27 09:15 61.31188 19.11077 35201 ft 409 kts 356°
2026-04-27 09:15 61.36881 19.11063 35198 ft 409 kts 356°
2026-04-27 09:16 61.42569 19.11058 35199 ft 409 kts 357°
2026-04-27 09:16 61.48269 19.11049 35202 ft 410 kts 357°
2026-04-27 09:17 61.53963 19.11044 35202 ft 410 kts 357°
2026-04-27 09:17 61.59661 19.11030 35201 ft 410 kts 357°
2026-04-27 09:18 61.65361 19.11029 35202 ft 410 kts 357°
2026-04-27 09:18 61.71063 19.11029 35200 ft 410 kts 357°
2026-04-27 09:19 61.76772 19.11027 35199 ft 411 kts 357°
2026-04-27 09:19 61.81523 19.11012 35199 ft 411 kts 357°
2026-04-27 09:20 61.87228 19.10996 35197 ft 411 kts 357°
2026-04-27 09:20 61.93865 19.10991 35189 ft 411 kts 357°
2026-04-27 09:21 61.98645 19.10982 35191 ft 411 kts 357°
2026-04-27 09:21 62.04366 19.10977 35191 ft 414 kts 357°
2026-04-27 09:22 62.10138 19.10979 35193 ft 415 kts 357°
2026-04-27 09:22 62.15897 19.10964 35190 ft 415 kts 357°
2026-04-27 09:23 62.21659 19.10955 35189 ft 415 kts 357°
2026-04-27 09:23 62.27403 19.10942 35184 ft 415 kts 357°
2026-04-27 09:24 62.33167 19.10934 35180 ft 415 kts 357°
2026-04-27 09:24 62.38943 19.10923 35180 ft 415 kts 357°
2026-04-27 09:25 62.44713 19.10923 35180 ft 415 kts 358°
2026-04-27 09:25 62.50491 19.10919 35180 ft 415 kts 357°
2026-04-27 09:26 62.56268 19.10902 35189 ft 415 kts 357°
2026-04-27 09:26 62.62035 19.10895 35207 ft 416 kts 358°
2026-04-27 09:27 62.67818 19.10889 35210 ft 416 kts 357°
2026-04-27 09:27 62.73611 19.10878 35204 ft 417 kts 357°
2026-04-27 09:28 62.79394 19.10871 35202 ft 416 kts 358°
2026-04-27 09:28 62.85193 19.10865 35197 ft 417 kts 358°
2026-04-27 09:29 62.90999 19.10859 35191 ft 417 kts 358°
2026-04-27 09:29 62.96796 19.10858 35190 ft 418 kts 358°
2026-04-27 09:30 63.02614 19.10840 35186 ft 418 kts 358°
2026-04-27 09:30 63.08433 19.10829 35181 ft 418 kts 358°
2026-04-27 09:31 63.14217 19.10823 35180 ft 418 kts 358°
2026-04-27 09:31 63.19993 19.10809 35180 ft 418 kts 358°
2026-04-27 09:32 63.25857 19.10805 35172 ft 418 kts 358°
2026-04-27 09:32 63.31629 19.10796 35171 ft 419 kts 358°
2026-04-27 09:33 63.37519 19.10788 35172 ft 419 kts 358°
2026-04-27 09:33 63.43359 19.10778 35170 ft 420 kts 358°
2026-04-27 09:34 63.49115 19.10771 35170 ft 420 kts 358°
2026-04-27 09:34 63.55030 19.10759 35170 ft 420 kts 358°
2026-04-27 09:35 63.60869 19.10749 35169 ft 421 kts 358°
2026-04-27 09:35 63.66721 19.10742 35171 ft 421 kts 358°
2026-04-27 09:36 63.72581 19.10735 35170 ft 421 kts 358°
2026-04-27 09:36 63.78440 19.10723 35171 ft 421 kts 358°
2026-04-27 09:37 63.84300 19.10713 35176 ft 422 kts 358°
2026-04-27 09:37 63.90169 19.10691 35180 ft 422 kts 358°
2026-04-27 09:38 63.96046 19.10682 35181 ft 423 kts 358°
2026-04-27 09:38 64.01920 19.10661 35181 ft 422 kts 358°
2026-04-27 09:39 64.07803 19.10640 35182 ft 424 kts 358°
2026-04-27 09:39 64.13688 19.10644 35185 ft 424 kts 358°
2026-04-27 09:40 64.19567 19.10640 35190 ft 424 kts 358°
2026-04-27 09:40 64.25445 19.10621 35189 ft 424 kts 358°
2026-04-27 09:41 64.31335 19.10626 35190 ft 425 kts 358°
2026-04-27 09:41 64.37227 19.10618 35190 ft 425 kts 358°
2026-04-27 09:42 64.43131 19.10617 35203 ft 425 kts 358°
2026-04-27 09:42 64.49036 19.10602 35203 ft 425 kts 358°
2026-04-27 09:43 64.54943 19.10592 35202 ft 425 kts 358°
2026-04-27 09:43 64.60850 19.10581 35202 ft 425 kts 358°
2026-04-27 09:44 64.66745 19.10570 35203 ft 425 kts 358°
2026-04-27 09:44 64.72642 19.10564 35201 ft 425 kts 358°
2026-04-27 09:45 64.78548 19.10553 35201 ft 425 kts 358°
2026-04-27 09:45 64.84449 19.10538 35199 ft 426 kts 358°
2026-04-27 09:46 64.90366 19.10529 35196 ft 426 kts 358°
2026-04-27 09:46 64.96280 19.10492 35191 ft 426 kts 358°
2026-04-27 09:47 65.02158 19.10501 35192 ft 426 kts 358°
2026-04-27 09:47 65.08063 19.10486 35189 ft 426 kts 358°
2026-04-27 09:48 65.13977 19.10490 35181 ft 426 kts 358°
2026-04-27 09:48 65.19903 19.10482 35180 ft 427 kts 358°
2026-04-27 09:49 65.25838 19.10471 35180 ft 427 kts 358°
2026-04-27 09:49 65.31763 19.10464 35181 ft 427 kts 358°
2026-04-27 09:50 65.37703 19.10454 35172 ft 427 kts 358°
2026-04-27 09:50 65.43647 19.10441 35171 ft 427 kts 358°
2026-04-27 09:51 65.49584 19.10429 35170 ft 427 kts 358°
2026-04-27 09:51 65.55530 19.10427 35171 ft 427 kts 358°
2026-04-27 09:52 65.61463 19.10418 35170 ft 427 kts 358°
2026-04-27 09:52 65.67392 19.10411 35170 ft 427 kts 358°
2026-04-27 09:53 65.73285 19.10396 35170 ft 427 kts 358°
2026-04-27 09:53 65.79216 19.10378 35170 ft 427 kts 358°
2026-04-27 09:54 65.85152 19.10370 35172 ft 427 kts 358°
2026-04-27 09:54 65.91088 19.10353 35172 ft 428 kts 358°
2026-04-27 09:55 65.97015 19.10348 35171 ft 428 kts 358°
2026-04-27 09:55 66.05937 19.10325 35171 ft 430 kts 359°
2026-04-27 09:56 66.11918 19.10315 35171 ft 430 kts 358°
2026-04-27 09:56 66.17879 19.10308 35172 ft 430 kts 359°
2026-04-27 09:57 66.23848 19.10298 35170 ft 430 kts 359°
2026-04-27 09:57 66.29809 19.10290 35170 ft 431 kts 359°
2026-04-27 09:58 66.35783 19.10282 35171 ft 430 kts 359°
2026-04-27 09:58 66.41753 19.10268 35171 ft 430 kts 359°
2026-04-27 09:59 66.47729 19.10259 35170 ft 430 kts 359°
2026-04-27 09:59 66.53709 19.10249 35171 ft 430 kts 359°
2026-04-27 10:00 66.59681 19.10242 35171 ft 430 kts 359°
2026-04-27 10:00 66.65653 19.10225 35170 ft 431 kts 359°
2026-04-27 10:01 66.70680 19.10219 35171 ft 431 kts 359°
2026-04-27 10:01 66.76432 19.08798 35203 ft 422 kts 338°
2026-04-27 10:02 66.79237 19.06633 35379 ft 423 kts 346°
2026-04-27 10:02 66.82156 19.05910 35249 ft 429 kts
2026-04-27 10:02 66.85101 19.07313 35151 ft 434 kts 13°
2026-04-27 10:02 66.88031 19.09096 35146 ft 433 kts
2026-04-27 10:03 66.93995 19.10202 35165 ft 431 kts 359°
2026-04-27 10:03 66.99953 19.10192 35169 ft 432 kts 358°
2026-04-27 10:04 67.05951 19.10147 35169 ft 432 kts 359°
2026-04-27 10:04 67.11956 19.10138 35171 ft 432 kts 359°
2026-04-27 10:05 67.17959 19.10133 35162 ft 432 kts 359°
2026-04-27 10:05 67.23946 19.10116 35161 ft 432 kts 359°
2026-04-27 10:06 67.29950 19.10098 35161 ft 433 kts 359°
2026-04-27 10:06 67.35950 19.10087 35152 ft 433 kts 359°
2026-04-27 10:07 67.41973 19.10082 35149 ft 433 kts 359°
2026-04-27 10:07 67.47994 19.10068 35148 ft 433 kts 359°
2026-04-27 10:08 67.54014 19.10049 35150 ft 433 kts 359°
2026-04-27 10:08 67.60029 19.10035 35151 ft 433 kts 359°
2026-04-27 10:09 67.66053 19.10030 35149 ft 433 kts 359°
2026-04-27 10:09 67.72090 19.10018 35151 ft 434 kts 359°
2026-04-27 10:10 67.78129 19.10010 35150 ft 434 kts 359°
2026-04-27 10:10 67.84165 19.09994 35151 ft 434 kts 359°
2026-04-27 10:11 67.90203 19.09981 35158 ft 434 kts 359°
2026-04-27 10:11 67.96235 19.09971 35160 ft 434 kts 359°
2026-04-27 10:12 68.02221 19.09954 35166 ft 434 kts 359°
2026-04-27 10:12 68.08266 19.09946 35171 ft 435 kts 359°
2026-04-27 10:13 68.14302 19.09926 35172 ft 435 kts 359°
2026-04-27 10:13 68.20323 19.09907 35180 ft 432 kts 359°
2026-04-27 10:14 68.26317 19.09897 35187 ft 431 kts 359°
2026-04-27 10:14 68.32319 19.09884 35195 ft 432 kts 359°
2026-04-27 10:15 68.38322 19.09875 35202 ft 431 kts 359°
2026-04-27 10:15 68.44278 19.09866 35208 ft 429 kts 359°
2026-04-27 10:16 68.50173 19.11399 35212 ft 430 kts 14°
2026-04-27 10:16 68.52952 19.14325 35016 ft 429 kts 24°
2026-04-27 10:16 68.55604 19.18042 34696 ft 436 kts 25°
2026-04-27 10:17 68.58290 19.21925 34428 ft 438 kts 25°
2026-04-27 10:17 68.60951 19.25778 34176 ft 437 kts 25°
2026-04-27 10:17 68.63634 19.29651 33925 ft 437 kts 25°
2026-04-27 10:17 68.66316 19.33521 33678 ft 437 kts 25°
2026-04-27 10:18 68.68965 19.37354 33306 ft 436 kts 25°
2026-04-27 10:18 68.71621 19.41206 32679 ft 433 kts 25°
2026-04-27 10:18 68.74239 19.45006 31963 ft 432 kts 25°
2026-04-27 10:18 68.76934 19.48931 31180 ft 432 kts 25°
2026-04-27 10:19 68.79586 19.52801 30379 ft 432 kts 25°
2026-04-27 10:19 68.82241 19.56695 29542 ft 433 kts 25°
2026-04-27 10:19 68.84895 19.60600 28683 ft 433 kts 25°
2026-04-27 10:19 68.87552 19.64461 27832 ft 432 kts 24°
2026-04-27 10:20 68.90325 19.67459 26943 ft 429 kts 14°
2026-04-27 10:20 68.93251 19.69019 26010 ft 428 kts
2026-04-27 10:20 68.96213 19.69023 25079 ft 427 kts 354°
2026-04-27 10:20 68.99038 19.67558 24280 ft 425 kts 345°
2026-04-27 10:21 69.01836 19.64541 23565 ft 432 kts 334°
2026-04-27 10:21 69.04448 19.60520 22828 ft 428 kts 331°
2026-04-27 10:21 69.06982 19.56427 22306 ft 427 kts 331°
2026-04-27 10:21 69.09558 19.52259 21850 ft 426 kts 331°
2026-04-27 10:22 69.12067 19.48198 21275 ft 417 kts 331°
2026-04-27 10:22 69.14555 19.44154 20638 ft 411 kts 331°
2026-04-27 10:22 69.17002 19.40193 19972 ft 405 kts 331°
2026-04-27 10:22 69.19419 19.36230 19347 ft 399 kts 330°
2026-04-27 10:23 69.21798 19.32311 18687 ft 395 kts 330°
2026-04-27 10:23 69.24154 19.28423 17992 ft 394 kts 330°
2026-04-27 10:23 69.26507 19.24527 17377 ft 391 kts 330°
2026-04-27 10:23 69.28835 19.20663 16817 ft 387 kts 330°
2026-04-27 10:24 69.31144 19.16822 16277 ft 382 kts 330°
2026-04-27 10:24 69.33421 19.13027 15742 ft 378 kts 330°
2026-04-27 10:24 69.35683 19.09254 15208 ft 375 kts 330°
2026-04-27 10:24 69.38010 19.06105 14754 ft 368 kts 340°
2026-04-27 10:25 69.40464 19.04457 14352 ft 361 kts 352°
2026-04-27 10:25 69.42954 19.04396 13886 ft 358 kts
2026-04-27 10:25 69.45390 19.05725 13362 ft 357 kts 12°
2026-04-27 10:25 69.47798 19.07382 12840 ft 356 kts 12°
2026-04-27 10:26 69.50194 19.09023 12361 ft 352 kts 12°
2026-04-27 10:26 69.52524 19.10617 12053 ft 338 kts 11°
2026-04-27 10:26 69.54759 19.12142 11833 ft 323 kts 11°
2026-04-27 10:26 69.56895 19.13581 11642 ft 308 kts 11°
2026-04-27 10:27 69.58931 19.14959 11468 ft 293 kts 11°
2026-04-27 10:27 69.60865 19.16274 11303 ft 278 kts 11°
2026-04-27 10:27 69.62710 19.17530 11021 ft 270 kts 11°
2026-04-27 10:27 69.64526 19.18785 10581 ft 268 kts 11°
2026-04-27 10:28 69.66325 19.20003 10184 ft 265 kts 11°
2026-04-27 10:28 69.68119 19.21211 9805 ft 265 kts 11°
2026-04-27 10:28 69.69919 19.22433 9439 ft 267 kts 11°
2026-04-27 10:28 69.71717 19.23657 9081 ft 266 kts 11°
2026-04-27 10:29 69.73518 19.24885 8733 ft 264 kts 11°
2026-04-27 10:29 69.75272 19.26086 8406 ft 259 kts 11°
2026-04-27 10:29 69.76983 19.27259 8080 ft 260 kts 11°
2026-04-27 10:29 69.78768 19.28490 7750 ft 261 kts 11°
2026-04-27 10:30 69.80516 19.29692 7367 ft 258 kts 11°
2026-04-27 10:30 69.82236 19.30878 6924 ft 256 kts 11°
2026-04-27 10:30 69.83961 19.32075 6535 ft 253 kts 11°
2026-04-27 10:30 69.85623 19.33267 6445 ft 239 kts 12°
2026-04-27 10:31 69.87161 19.34380 6497 ft 218 kts 12°
2026-04-27 10:31 69.88529 19.35360 6558 ft 192 kts 11°
2026-04-27 10:31 69.89764 19.36325 6571 ft 179 kts 18°
2026-04-27 10:31 69.90893 19.37615 6347 ft 177 kts
2026-04-27 10:32 69.91998 19.36600 6125 ft 167 kts 318°
2026-04-27 10:32 69.92414 19.33552 5964 ft 176 kts 274°
2026-04-27 10:32 69.92273 19.30020 5813 ft 173 kts 278°
2026-04-27 10:32 69.92521 19.26634 5611 ft 170 kts 288°
2026-04-27 10:33 69.92792 19.23306 5456 ft 169 kts 287°
2026-04-27 10:33 69.93056 19.19964 5385 ft 169 kts 287°
2026-04-27 10:33 69.93318 19.16615 5374 ft 170 kts 286°
2026-04-27 10:33 69.93574 19.13196 5417 ft 181 kts 284°
2026-04-27 10:34 69.93417 19.09522 5313 ft 192 kts 248°
2026-04-27 10:34 69.92406 19.07017 5093 ft 200 kts 204°
2026-04-27 10:34 69.91046 19.06220 4957 ft 200 kts 189°
2026-04-27 10:34 69.89712 19.05725 4942 ft 190 kts 190°
2026-04-27 10:35 69.88416 19.05112 4955 ft 189 kts 192°
2026-04-27 10:35 69.87123 19.04371 4768 ft 190 kts 194°
2026-04-27 10:35 69.85827 19.03622 4477 ft 190 kts 194°
2026-04-27 10:35 69.84542 19.02776 4154 ft 190 kts 195°
2026-04-27 10:36 69.83256 19.01911 3824 ft 190 kts 195°
2026-04-27 10:36 69.81980 19.01050 3481 ft 187 kts 195°
2026-04-27 10:36 69.80730 19.00207 3143 ft 183 kts 195°
2026-04-27 10:36 69.79517 18.99389 2819 ft 180 kts 195°
2026-04-27 10:37 69.78349 18.98602 2519 ft 165 kts 196°
2026-04-27 10:37 69.77285 18.97882 2224 ft 151 kts 195°
2026-04-27 10:37 69.76331 18.97241 1955 ft 133 kts 195°
2026-04-27 10:37 69.75442 18.96645 1728 ft 131 kts 195°
2026-04-27 10:38 69.74560 18.96052 1508 ft 130 kts 195°
2026-04-27 10:38 69.73682 18.95464 1287 ft 129 kts 195°
2026-04-27 10:38 69.72807 18.94878 1058 ft 129 kts 195°
2026-04-27 10:38 69.71936 18.94295 825 ft 129 kts 195°
2026-04-27 10:39 69.71069 18.93723 594 ft 128 kts 194°
2026-04-27 10:39 69.70202 18.93158 362 ft 128 kts 194°
2026-04-27 10:39 69.69339 18.92561 137 ft 128 kts 194°
2026-04-27 10:39 69.68491 18.91985 34 ft 121 kts 193°
2026-04-27 10:40 69.67917 18.91613 44 ft 51 kts 193°
2026-04-27 10:40 69.67762 18.91513 45 ft 5 kts 193°
2026-04-27 10:40 69.67733 18.91428 43 ft 8 kts 253°
2026-04-27 10:40 69.67743 18.91264 42 ft 9 kts 281°
2026-04-27 10:41 69.67766 18.91165 40 ft 3 kts 335°
2026-04-27 10:41 69.67793 18.91150 40 ft 0 kts
2026-04-27 10:41 69.67793 18.91151 40 ft 0 kts
2026-04-27 10:41 69.67832 18.91172 40 ft 8 kts 12°
2026-04-27 10:42 69.67886 18.91209 40 ft 3 kts
2026-04-27 10:42 69.67907 18.91160 40 ft 5 kts 297°
2026-04-27 10:42 69.67919 18.91036 40 ft 7 kts 283°
2026-04-27 10:42 69.67928 18.90933 40 ft 0 kts 281°
2026-04-27 10:43 69.67929 18.90919 40 ft 2 kts 282°
2026-04-27 10:43 69.67931 18.90899 38 ft 0 kts 281°